Time,TemperatureF,DewpointF,PressureIn,WindDirection,WindDirectionDegrees,WindSpeedMPH,WindSpeedGustMPH,Humidity,HourlyPrecipIn,Conditions,Clouds,dailyrainin,SoftwareType,DateUTC
2013-03-21 00:09:00,46.0,36.0,29.86,WSW,239,0.0,-999.0,67,-99.99,,,0.00,weatherlink.com 1.10,2013-03-21 04:09:00,
2013-03-21 00:24:00,45.5,35.0,29.86,WSW,239,0.0,-999.0,67,-99.99,,,0.00,weatherlink.com 1.10,2013-03-21 04:24:00,
2013-03-21 00:39:00,45.1,35.0,29.85,WSW,239,0.0,-999.0,69,-99.99,,,0.00,weatherlink.com 1.10,2013-03-21 04:39:00,
2013-03-21 00:54:00,44.9,36.0,29.85,WSW,239,0.0,-999.0,70,-99.99,,,0.00,weatherlink.com 1.10,2013-03-21 04:54:00,
2013-03-21 01:09:00,44.8,36.0,29.85,WSW,239,0.0,-999.0,70,-99.99,,,0.00,weatherlink.com 1.10,2013-03-21 05:09:00,
2013-03-21 01:24:00,45.4,36.0,29.85,SSE,162,0.0,-999.0,70,-99.99,,,0.00,weatherlink.com 1.10,2013-03-21 05:24:00,
2013-03-21 01:39:00,46.4,36.0,29.85,SE,126,0.0,-999.0,67,-99.99,,,0.00,weatherlink.com 1.10,2013-03-21 05:39:00,
2013-03-21 01:54:00,46.5,35.0,29.85,SE,130,0.0,-999.0,64,-99.99,,,0.00,weatherlink.com 1.10,2013-03-21 05:54:00,
2013-03-21 02:09:00,46.5,34.0,29.85,SSE,155,0.0,-999.0,62,-99.99,,,0.00,weatherlink.com 1.10,2013-03-21 06:09:00,
2013-03-21 02:24:00,46.5,33.0,29.85,WSW,257,0.0,-999.0,60,-99.99,,,0.00,weatherlink.com 1.10,2013-03-21 06:24:00,
2013-03-21 02:39:00,46.5,32.0,29.84,SSE,151,0.0,-999.0,57,-99.99,,,0.00,weatherlink.com 1.10,2013-03-21 06:39:00,
2013-03-21 02:54:00,46.7,32.0,29.84,SE,126,0.0,-999.0,57,-99.99,,,0.00,weatherlink.com 1.10,2013-03-21 06:54:00,
2013-03-21 03:09:00,47.1,31.0,29.83,SE,136,1.0,-999.0,53,-99.99,,,0.00,weatherlink.com 1.10,2013-03-21 07:09:00,
2013-03-21 03:24:00,47.4,29.0,29.83,SSE,150,0.0,-999.0,49,-99.99,,,0.00,weatherlink.com 1.10,2013-03-21 07:24:00,
2013-03-21 03:39:00,47.3,27.0,29.84,SSE,162,0.0,-999.0,46,-99.99,,,0.00,weatherlink.com 1.10,2013-03-21 07:39:00,
2013-03-21 03:54:00,47.3,27.0,29.84,SSE,150,0.0,-999.0,45,-99.99,,,0.00,weatherlink.com 1.10,2013-03-21 07:54:00,
2013-03-21 04:09:00,47.4,26.0,29.83,East,83,0.0,-999.0,43,-99.99,,,0.00,weatherlink.com 1.10,2013-03-21 08:09:00,
2013-03-21 04:24:00,47.3,26.0,29.82,WSW,240,1.0,-999.0,43,-99.99,,,0.00,weatherlink.com 1.10,2013-03-21 08:24:00,
2013-03-21 04:39:00,47.3,26.0,29.82,SSE,155,0.0,-999.0,43,-99.99,,,0.00,weatherlink.com 1.10,2013-03-21 08:39:00,
2013-03-21 04:54:00,47.3,25.0,29.83,ESE,122,0.0,-999.0,42,-99.99,,,0.00,weatherlink.com 1.10,2013-03-21 08:54:00,
2013-03-21 05:09:00,47.9,24.0,29.83,West,280,5.0,-999.0,39,-99.99,,,0.00,weatherlink.com 1.10,2013-03-21 09:09:00,
2013-03-21 05:24:00,48.2,24.0,29.83,West,271,4.0,-999.0,39,-99.99,,,0.00,weatherlink.com 1.10,2013-03-21 09:24:00,
2013-03-21 05:39:00,47.9,24.0,29.84,SSE,154,2.0,-999.0,39,-99.99,,,0.00,weatherlink.com 1.10,2013-03-21 09:39:00,
2013-03-21 05:54:00,47.3,24.0,29.85,SSE,153,1.0,-999.0,40,-99.99,,,0.00,weatherlink.com 1.10,2013-03-21 09:54:00,
2013-03-21 06:09:00,46.8,25.0,29.86,SSE,150,3.0,-999.0,42,-99.99,,,0.00,weatherlink.com 1.10,2013-03-21 10:09:00,
2013-03-21 06:24:00,46.2,24.0,29.86,SW,234,3.0,-999.0,41,-99.99,,,0.00,weatherlink.com 1.10,2013-03-21 10:24:00,
2013-03-21 06:39:00,46.0,23.0,29.88,WSW,242,1.0,-999.0,41,-99.99,,,0.00,weatherlink.com 1.10,2013-03-21 10:39:00,
2013-03-21 06:54:00,45.5,22.0,29.88,SW,232,0.0,-999.0,40,-99.99,,,0.00,weatherlink.com 1.10,2013-03-21 10:54:00,
2013-03-21 07:09:00,45.1,21.0,29.88,SSE,152,0.0,-999.0,39,-99.99,,,0.00,weatherlink.com 1.10,2013-03-21 11:09:00,
2013-03-21 07:24:00,44.8,21.0,29.88,SW,234,1.0,-999.0,39,-99.99,,,0.00,weatherlink.com 1.10,2013-03-21 11:24:00,
2013-03-21 07:39:00,44.2,21.0,29.89,ESE,109,0.0,-999.0,40,-99.99,,,0.00,weatherlink.com 1.10,2013-03-21 11:39:00,
2013-03-21 07:54:00,44.1,22.0,29.89,SW,236,0.0,-999.0,41,-99.99,,,0.00,weatherlink.com 1.10,2013-03-21 11:54:00,
2013-03-21 08:09:00,44.1,22.0,29.89,NNW,335,2.0,-999.0,41,-99.99,,,0.00,weatherlink.com 1.10,2013-03-21 12:09:00,
2013-03-21 08:24:00,44.2,21.0,29.89,SSE,149,0.0,-999.0,40,-99.99,,,0.00,weatherlink.com 1.10,2013-03-21 12:24:00,
2013-03-21 08:39:00,44.5,21.0,29.89,SE,144,3.0,-999.0,40,-99.99,,,0.00,weatherlink.com 1.10,2013-03-21 12:39:00,
2013-03-21 08:54:00,45.1,21.0,29.89,NW,322,0.0,-999.0,38,-99.99,,,0.00,weatherlink.com 1.10,2013-03-21 12:54:00,
2013-03-21 09:09:00,45.7,21.0,29.89,NW,305,0.0,-999.0,38,-99.99,,,0.00,weatherlink.com 1.10,2013-03-21 13:09:00,
2013-03-21 09:24:00,46.0,20.0,29.90,NE,48,1.0,-999.0,36,-99.99,,,0.00,weatherlink.com 1.10,2013-03-21 13:24:00,
2013-03-21 09:39:00,46.2,20.0,29.90,SSE,162,0.0,-999.0,36,-99.99,,,0.00,weatherlink.com 1.10,2013-03-21 13:39:00,
2013-03-21 09:54:00,47.3,21.0,29.89,SSW,201,0.0,-999.0,36,-99.99,,,0.00,weatherlink.com 1.10,2013-03-21 13:54:00,
2013-03-21 10:09:00,47.7,20.0,29.89,WSW,248,2.0,-999.0,34,-99.99,,,0.00,weatherlink.com 1.10,2013-03-21 14:09:00,
2013-03-21 10:24:00,49.2,20.0,29.89,WSW,253,4.0,-999.0,32,-99.99,,,0.00,weatherlink.com 1.10,2013-03-21 14:24:00,
2013-03-21 10:39:00,50.4,21.0,29.90,East,79,2.0,-999.0,31,-99.99,,,0.00,weatherlink.com 1.10,2013-03-21 14:39:00,
2013-03-21 10:54:00,50.7,21.0,29.89,ENE,73,2.0,-999.0,31,-99.99,,,0.00,weatherlink.com 1.10,2013-03-21 14:54:00,
2013-03-21 11:10:00,51.1,20.0,29.90,West,261,2.0,-999.0,29,-99.99,,,0.00,weatherlink.com 1.10,2013-03-21 15:10:00,
2013-03-21 11:25:00,52.5,21.0,29.90,South,184,3.0,-999.0,29,-99.99,,,0.00,weatherlink.com 1.10,2013-03-21 15:25:00,
2013-03-21 11:40:00,54.1,21.0,29.90,East,84,6.0,-999.0,27,-99.99,,,0.00,weatherlink.com 1.10,2013-03-21 15:40:00,
2013-03-21 11:55:00,55.1,20.0,29.90,East,83,5.0,-999.0,25,-99.99,,,0.00,weatherlink.com 1.10,2013-03-21 15:55:00,
2013-03-21 12:10:00,55.9,17.0,29.89,ESE,116,2.0,-999.0,22,-99.99,,,0.00,weatherlink.com 1.10,2013-03-21 16:10:00,
2013-03-21 12:25:00,56.5,16.0,29.88,ESE,116,0.0,-999.0,20,-99.99,,,0.00,weatherlink.com 1.10,2013-03-21 16:25:00,
2013-03-21 12:40:00,58.0,14.0,29.88,South,169,3.0,-999.0,18,-99.99,,,0.00,weatherlink.com 1.10,2013-03-21 16:40:00,
2013-03-21 12:55:00,59.0,13.0,29.88,ENE,59,1.0,-999.0,16,-99.99,,,0.00,weatherlink.com 1.10,2013-03-21 16:55:00,
2013-03-21 13:10:00,59.9,7.0,29.88,East,89,1.0,-999.0,12,-99.99,,,0.00,weatherlink.com 1.10,2013-03-21 17:10:00,
2013-03-21 13:25:00,60.2,11.0,29.88,East,85,0.0,-999.0,14,-99.99,,,0.00,weatherlink.com 1.10,2013-03-21 17:25:00,
2013-03-21 13:40:00,60.7,11.0,29.87,ENE,77,0.0,-999.0,14,-99.99,,,0.00,weatherlink.com 1.10,2013-03-21 17:40:00,
2013-03-21 13:55:00,61.3,6.0,29.86,ENE,73,6.0,-999.0,11,-99.99,,,0.00,weatherlink.com 1.10,2013-03-21 17:55:00,
2013-03-21 14:10:00,62.3,7.0,29.86,WNW,289,3.0,-999.0,11,-99.99,,,0.00,weatherlink.com 1.10,2013-03-21 18:10:00,
2013-03-21 14:25:00,63.9,8.0,29.85,WSW,239,3.0,-999.0,11,-99.99,,,0.00,weatherlink.com 1.10,2013-03-21 18:25:00,
2013-03-21 14:40:00,63.1,3.0,29.85,SSE,162,1.0,-999.0,9,-99.99,,,0.00,weatherlink.com 1.10,2013-03-21 18:40:00,
2013-03-21 14:55:00,63.1,-2.0,29.85,NNW,327,4.0,-999.0,7,-99.99,,,0.00,weatherlink.com 1.10,2013-03-21 18:55:00,
2013-03-21 15:10:00,64.7,4.0,29.85,South,170,6.0,-999.0,9,-99.99,,,0.00,weatherlink.com 1.10,2013-03-21 19:10:00,
2013-03-21 15:25:00,64.8,-1.0,29.84,SE,136,1.0,-999.0,7,-99.99,,,0.00,weatherlink.com 1.10,2013-03-21 19:25:00,
2013-03-21 15:40:00,65.5,2.0,29.84,South,180,3.0,-999.0,8,-99.99,,,0.00,weatherlink.com 1.10,2013-03-21 19:40:00,
2013-03-21 15:55:00,63.4,6.0,29.84,ESE,115,1.0,-999.0,10,-99.99,,,0.00,weatherlink.com 1.10,2013-03-21 19:55:00,
2013-03-21 16:11:00,63.2,3.0,29.83,NE,41,1.0,-999.0,9,-99.99,,,0.00,weatherlink.com 1.10,2013-03-21 20:11:00,
2013-03-21 16:26:00,63.4,1.0,29.84,SE,141,4.0,-999.0,8,-99.99,,,0.00,weatherlink.com 1.10,2013-03-21 20:26:00,
2013-03-21 16:41:00,64.3,-2.0,29.83,SSW,207,3.0,-999.0,7,-99.99,,,0.00,weatherlink.com 1.10,2013-03-21 20:41:00,
2013-03-21 17:11:00,62.1,2.0,29.83,SE,140,1.0,-999.0,9,-99.99,,,0.00,weatherlink.com 1.10,2013-03-21 21:11:00,
2013-03-21 17:26:00,61.3,11.0,29.83,ENE,76,0.0,-999.0,14,-99.99,,,0.00,weatherlink.com 1.10,2013-03-21 21:26:00,
2013-03-21 17:41:00,59.3,6.0,29.84,SE,124,3.0,-999.0,12,-99.99,,,0.00,weatherlink.com 1.10,2013-03-21 21:41:00,
2013-03-21 17:56:00,58.4,8.0,29.85,SSE,162,2.0,-999.0,13,-99.99,,,0.00,weatherlink.com 1.10,2013-03-21 21:56:00,
2013-03-21 18:11:00,58.4,9.0,29.85,SW,231,6.0,-999.0,14,-99.99,,,0.00,weatherlink.com 1.10,2013-03-21 22:11:00,
2013-03-21 18:26:00,58.1,10.0,29.85,SSE,160,2.0,-999.0,15,-99.99,,,0.00,weatherlink.com 1.10,2013-03-21 22:26:00,
2013-03-21 18:41:00,58.4,11.0,29.85,NW,320,2.0,-999.0,15,-99.99,,,0.00,weatherlink.com 1.10,2013-03-21 22:41:00,
2013-03-21 18:56:00,57.8,9.0,29.85,SE,133,0.0,-999.0,14,-99.99,,,0.00,weatherlink.com 1.10,2013-03-21 22:56:00,
2013-03-21 19:11:00,56.9,9.0,29.86,SE,137,0.0,-999.0,15,-99.99,,,0.00,weatherlink.com 1.10,2013-03-21 23:11:00,
2013-03-21 19:26:00,55.9,9.0,29.88,ESE,114,0.0,-999.0,15,-99.99,,,0.00,weatherlink.com 1.10,2013-03-21 23:26:00,
2013-03-21 19:42:00,54.8,12.0,29.88,SE,137,0.0,-999.0,18,-99.99,,,0.00,weatherlink.com 1.10,2013-03-21 23:42:00,
2013-03-21 19:57:00,53.9,12.0,29.88,SSE,166,1.0,-999.0,19,-99.99,,,0.00,weatherlink.com 1.10,2013-03-21 23:57:00,
2013-03-21 20:12:00,53.3,13.0,29.89,SE,127,0.0,-999.0,20,-99.99,,,0.00,weatherlink.com 1.10,2013-03-22 00:12:00,
2013-03-21 20:27:00,52.8,14.0,29.90,East,81,0.0,-999.0,21,-99.99,,,0.00,weatherlink.com 1.10,2013-03-22 00:27:00,
2013-03-21 20:42:00,52.2,13.0,29.91,SSE,159,0.0,-999.0,21,-99.99,,,0.00,weatherlink.com 1.10,2013-03-22 00:42:00,
2013-03-21 21:12:00,51.1,14.0,29.91,SSE,150,0.0,-999.0,23,-99.99,,,0.00,weatherlink.com 1.10,2013-03-22 01:12:00,
2013-03-21 21:27:00,50.5,16.0,29.91,SSE,164,0.0,-999.0,25,-99.99,,,0.00,weatherlink.com 1.10,2013-03-22 01:27:00,
2013-03-21 21:42:00,49.9,16.0,29.92,ENE,70,3.0,-999.0,26,-99.99,,,0.00,weatherlink.com 1.10,2013-03-22 01:42:00,
2013-03-21 21:58:00,49.5,16.0,29.92,ENE,70,0.0,-999.0,26,-99.99,,,0.00,weatherlink.com 1.10,2013-03-22 01:58:00,
2013-03-21 22:12:00,49.1,17.0,29.92,ENE,70,0.0,-999.0,28,-99.99,,,0.00,weatherlink.com 1.10,2013-03-22 02:12:00,
2013-03-21 22:27:00,48.6,18.0,29.93,ENE,70,0.0,-999.0,30,-99.99,,,0.00,weatherlink.com 1.10,2013-03-22 02:27:00,
2013-03-21 22:43:00,48.3,18.0,29.94,ENE,70,0.0,-999.0,30,-99.99,,,0.00,weatherlink.com 1.10,2013-03-22 02:43:00,
2013-03-21 22:57:00,47.9,18.0,29.94,SE,140,0.0,-999.0,31,-99.99,,,0.00,weatherlink.com 1.10,2013-03-22 02:57:00,
2013-03-21 23:13:00,47.4,19.0,29.95,SSW,211,1.0,-999.0,32,-99.99,,,0.00,weatherlink.com 1.10,2013-03-22 03:13:00,
2013-03-21 23:28:00,46.8,18.0,29.95,SSE,160,0.0,-999.0,32,-99.99,,,0.00,weatherlink.com 1.10,2013-03-22 03:28:00,
2013-03-21 23:43:00,46.5,16.0,29.95,SSW,201,0.0,-999.0,30,-99.99,,,0.00,weatherlink.com 1.10,2013-03-22 03:43:00,
2013-03-21 23:58:00,46.4,16.0,29.95,SSW,200,0.0,-999.0,30,-99.99,,,0.00,weatherlink.com 1.10,2013-03-22 03:58:00,